Year,Month,Day,Hour,Minute,Value (Times are PST for temperature in C)
2016,09,30,00,00,4.90
2016,09,30,00,01,4.90
2016,09,30,00,02,4.90
2016,09,30,00,03,4.90
2016,09,30,00,04,4.90
2016,09,30,00,05,4.80
2016,09,30,00,06,4.80
2016,09,30,00,07,4.80
2016,09,30,00,08,4.80
2016,09,30,00,09,4.80
2016,09,30,00,10,4.80
2016,09,30,00,11,4.80
2016,09,30,00,12,4.80
2016,09,30,00,13,4.80
2016,09,30,00,14,4.80
2016,09,30,00,15,4.80
2016,09,30,00,16,4.80
2016,09,30,00,17,4.70
2016,09,30,00,18,4.70
2016,09,30,00,19,4.70
2016,09,30,00,20,4.70
2016,09,30,00,21,4.70
2016,09,30,00,22,4.70
2016,09,30,00,23,4.70
2016,09,30,00,24,4.70
2016,09,30,00,25,4.60
2016,09,30,00,26,4.70
2016,09,30,00,27,4.60
2016,09,30,00,28,4.60
2016,09,30,00,29,4.60
2016,09,30,00,30,4.60
2016,09,30,00,31,4.60
2016,09,30,00,32,4.60
2016,09,30,00,33,4.60
2016,09,30,00,34,4.60
2016,09,30,00,35,4.50
2016,09,30,00,36,4.50
2016,09,30,00,37,4.50
2016,09,30,00,38,4.50
2016,09,30,00,39,4.50
2016,09,30,00,40,4.40
2016,09,30,00,41,4.40
2016,09,30,00,42,4.40
2016,09,30,00,43,4.40
2016,09,30,00,44,4.40
2016,09,30,00,45,4.40
2016,09,30,00,46,4.40
2016,09,30,00,47,4.40
2016,09,30,00,48,4.40
2016,09,30,00,49,4.40
2016,09,30,00,50,4.30
2016,09,30,00,51,4.30
2016,09,30,00,52,4.30
2016,09,30,00,53,4.30
2016,09,30,00,54,4.30
2016,09,30,00,55,4.30
2016,09,30,00,56,4.30
2016,09,30,00,57,4.30
2016,09,30,00,58,4.20
2016,09,30,00,59,4.20
2016,09,30,01,00,4.20
2016,09,30,01,01,4.20
2016,09,30,01,02,4.20
2016,09,30,01,03,4.20
2016,09,30,01,04,4.20
2016,09,30,01,05,4.20
2016,09,30,01,06,4.10
2016,09,30,01,07,4.10
2016,09,30,01,08,4.10
2016,09,30,01,09,4.10
2016,09,30,01,10,4.10
2016,09,30,01,11,4.10
2016,09,30,01,12,4.10
2016,09,30,01,13,4.10
2016,09,30,01,14,4.10
2016,09,30,01,15,4.10
2016,09,30,01,16,4.10
2016,09,30,01,17,4.00
2016,09,30,01,18,4.00
2016,09,30,01,19,4.00
2016,09,30,01,20,4.00
2016,09,30,01,21,4.00
2016,09,30,01,22,4.00
2016,09,30,01,23,3.90
2016,09,30,01,24,3.90
2016,09,30,01,25,3.90
2016,09,30,01,26,3.90
2016,09,30,01,27,3.90
2016,09,30,01,28,3.90
2016,09,30,01,29,3.90
2016,09,30,01,30,3.90
2016,09,30,01,31,3.90
2016,09,30,01,32,3.90
2016,09,30,01,33,3.90
2016,09,30,01,34,3.90
2016,09,30,01,35,3.90
2016,09,30,01,36,3.90
2016,09,30,01,37,3.90
2016,09,30,01,38,3.90
2016,09,30,01,39,3.90
2016,09,30,01,40,3.90
2016,09,30,01,41,3.90
2016,09,30,01,42,3.80
2016,09,30,01,43,3.80
2016,09,30,01,44,3.80
2016,09,30,01,45,3.80
2016,09,30,01,46,3.80
2016,09,30,01,47,3.80
2016,09,30,01,48,3.80
2016,09,30,01,49,3.80
2016,09,30,01,50,3.80
2016,09,30,01,51,3.80
2016,09,30,01,52,3.80
2016,09,30,01,53,3.80
2016,09,30,01,54,3.80
2016,09,30,01,55,3.80
2016,09,30,01,56,3.80
2016,09,30,01,57,3.80
2016,09,30,01,58,3.80
2016,09,30,01,59,3.80
2016,09,30,02,00,3.80
2016,09,30,02,01,3.80
2016,09,30,02,02,3.80
2016,09,30,02,03,3.80
2016,09,30,02,04,3.80
2016,09,30,02,05,3.80
2016,09,30,02,06,3.80
2016,09,30,02,07,3.80
2016,09,30,02,08,3.90
2016,09,30,02,09,3.90
2016,09,30,02,10,3.90
2016,09,30,02,11,3.90
2016,09,30,02,12,3.90
2016,09,30,02,13,3.90
2016,09,30,02,14,3.90
2016,09,30,02,15,3.90
2016,09,30,02,16,3.90
2016,09,30,02,17,3.90
2016,09,30,02,18,3.90
2016,09,30,02,19,3.90
2016,09,30,02,20,3.90
2016,09,30,02,21,3.90
2016,09,30,02,22,3.90
2016,09,30,02,23,3.80
2016,09,30,02,24,3.80
2016,09,30,02,25,3.80
2016,09,30,02,26,3.80
2016,09,30,02,27,3.80
2016,09,30,02,28,3.80
2016,09,30,02,29,3.80
2016,09,30,02,30,3.80
2016,09,30,02,31,3.80
2016,09,30,02,32,3.80
2016,09,30,02,33,3.80
2016,09,30,02,34,3.80
2016,09,30,02,35,3.80
2016,09,30,02,36,3.80
2016,09,30,02,37,3.80
2016,09,30,02,38,3.80
2016,09,30,02,39,3.80
2016,09,30,02,40,3.80
2016,09,30,02,41,3.80
2016,09,30,02,42,3.80
2016,09,30,02,43,3.80
2016,09,30,02,44,3.80
2016,09,30,02,45,3.80
2016,09,30,02,46,3.80
2016,09,30,02,47,3.80
2016,09,30,02,48,3.80
2016,09,30,02,49,3.80
2016,09,30,02,50,3.80
2016,09,30,02,51,3.80
2016,09,30,02,52,3.80
2016,09,30,02,53,3.80
2016,09,30,02,54,3.80
2016,09,30,02,55,3.80
2016,09,30,02,56,3.80
2016,09,30,02,57,3.80
2016,09,30,02,58,3.80
2016,09,30,02,59,3.80
2016,09,30,03,00,3.80
2016,09,30,03,01,3.80
2016,09,30,03,02,3.80
2016,09,30,03,03,3.80
2016,09,30,03,04,3.80
2016,09,30,03,05,3.80
2016,09,30,03,06,3.70
2016,09,30,03,07,3.70
2016,09,30,03,08,3.70
2016,09,30,03,09,3.70
2016,09,30,03,10,3.70
2016,09,30,03,11,3.70
2016,09,30,03,12,3.70
2016,09,30,03,13,3.70
2016,09,30,03,14,3.70
2016,09,30,03,15,3.70
2016,09,30,03,16,3.70
2016,09,30,03,17,3.70
2016,09,30,03,18,3.70
2016,09,30,03,19,3.70
2016,09,30,03,20,3.70
2016,09,30,03,21,3.70
2016,09,30,03,22,3.70
2016,09,30,03,23,3.70
2016,09,30,03,24,3.70
2016,09,30,03,25,3.70
2016,09,30,03,26,3.70
2016,09,30,03,27,3.70
2016,09,30,03,28,3.70
2016,09,30,03,29,3.60
2016,09,30,03,30,3.60
2016,09,30,03,31,3.60
2016,09,30,03,32,3.60
2016,09,30,03,33,3.60
2016,09,30,03,34,3.60
2016,09,30,03,35,3.60
2016,09,30,03,36,3.60
2016,09,30,03,37,3.60
2016,09,30,03,38,3.60
2016,09,30,03,39,3.50
2016,09,30,03,40,3.50
2016,09,30,03,41,3.50
2016,09,30,03,42,3.50
2016,09,30,03,43,3.50
2016,09,30,03,44,3.50
2016,09,30,03,45,3.50
2016,09,30,03,46,3.50
2016,09,30,03,47,3.50
2016,09,30,03,48,3.50
2016,09,30,03,49,3.50
2016,09,30,03,50,3.50
2016,09,30,03,51,3.50
2016,09,30,03,52,3.50
2016,09,30,03,53,3.50
2016,09,30,03,54,3.50
2016,09,30,03,55,3.50
2016,09,30,03,56,3.50
2016,09,30,03,57,3.50
2016,09,30,03,58,3.50
2016,09,30,03,59,3.50
2016,09,30,04,00,3.50
2016,09,30,04,01,3.50
2016,09,30,04,02,3.40
2016,09,30,04,03,3.40
2016,09,30,04,04,3.40
2016,09,30,04,05,3.40
2016,09,30,04,06,3.40
2016,09,30,04,07,3.40
2016,09,30,04,08,3.40
2016,09,30,04,09,3.40
2016,09,30,04,10,3.30
2016,09,30,04,11,3.30
2016,09,30,04,12,3.30
2016,09,30,04,13,3.30
2016,09,30,04,14,3.30
2016,09,30,04,15,3.30
2016,09,30,04,16,3.30
2016,09,30,04,17,3.30
2016,09,30,04,18,3.30
2016,09,30,04,19,3.30
2016,09,30,04,20,3.30
2016,09,30,04,21,3.30
2016,09,30,04,22,3.30
2016,09,30,04,23,3.30
2016,09,30,04,24,3.30
2016,09,30,04,25,3.30
2016,09,30,04,26,3.30
2016,09,30,04,27,3.30
2016,09,30,04,28,3.30
2016,09,30,04,29,3.30
2016,09,30,04,30,3.30
2016,09,30,04,31,3.30
2016,09,30,04,32,3.30
2016,09,30,04,33,3.30
2016,09,30,04,34,3.30
2016,09,30,04,35,3.20
2016,09,30,04,36,3.20
2016,09,30,04,37,3.20
2016,09,30,04,38,3.20
2016,09,30,04,39,3.20
2016,09,30,04,40,3.20
2016,09,30,04,41,3.20
2016,09,30,04,42,3.20
2016,09,30,04,43,3.20
2016,09,30,04,44,3.20
2016,09,30,04,45,3.20
2016,09,30,04,46,3.20
2016,09,30,04,47,3.20
2016,09,30,04,48,3.20
2016,09,30,04,49,3.20
2016,09,30,04,50,3.20
2016,09,30,04,51,3.20
2016,09,30,04,52,3.20
2016,09,30,04,53,3.20
2016,09,30,04,54,3.20
2016,09,30,04,55,3.20
2016,09,30,04,56,3.20
2016,09,30,04,57,3.20
2016,09,30,04,58,3.20
2016,09,30,04,59,3.20
2016,09,30,05,00,3.20
2016,09,30,05,01,3.20
2016,09,30,05,02,3.20
2016,09,30,05,03,3.20
2016,09,30,05,04,3.20
2016,09,30,05,05,3.20
2016,09,30,05,06,3.20
2016,09,30,05,07,3.20
2016,09,30,05,08,3.20
2016,09,30,05,09,3.20
2016,09,30,05,10,3.20
2016,09,30,05,11,3.20
2016,09,30,05,12,3.20
2016,09,30,05,13,3.20
2016,09,30,05,14,3.20
2016,09,30,05,15,3.20
2016,09,30,05,16,3.20
2016,09,30,05,17,3.20
2016,09,30,05,18,3.10
2016,09,30,05,19,3.10
2016,09,30,05,20,3.10
2016,09,30,05,21,3.10
2016,09,30,05,22,3.10
2016,09,30,05,23,3.10
2016,09,30,05,24,3.10
2016,09,30,05,25,3.10
2016,09,30,05,26,3.00
2016,09,30,05,27,3.00
2016,09,30,05,28,3.00
2016,09,30,05,29,3.00
2016,09,30,05,30,3.00
2016,09,30,05,31,3.00
2016,09,30,05,32,3.00
2016,09,30,05,33,3.00
2016,09,30,05,34,3.00
2016,09,30,05,35,3.00
2016,09,30,05,36,3.00
2016,09,30,05,37,3.00
2016,09,30,05,38,3.00
2016,09,30,05,39,3.00
2016,09,30,05,40,3.00
2016,09,30,05,41,3.00
2016,09,30,05,42,3.00
2016,09,30,05,43,3.00
2016,09,30,05,44,3.00
2016,09,30,05,45,3.00
2016,09,30,05,46,3.00
2016,09,30,05,47,3.00
2016,09,30,05,48,3.00
2016,09,30,05,49,3.00
2016,09,30,05,50,2.90
2016,09,30,05,51,2.90
2016,09,30,05,52,2.90
2016,09,30,05,53,2.90
2016,09,30,05,54,2.90
2016,09,30,05,55,2.90
2016,09,30,05,56,2.90
2016,09,30,05,57,2.90
2016,09,30,05,58,2.90
2016,09,30,05,59,2.90
2016,09,30,06,00,2.90
2016,09,30,06,01,2.90
2016,09,30,06,02,2.90
2016,09,30,06,03,2.90
2016,09,30,06,04,2.80
2016,09,30,06,05,2.80
2016,09,30,06,06,2.80
2016,09,30,06,07,2.80
2016,09,30,06,08,2.80
2016,09,30,06,09,2.80
2016,09,30,06,10,2.80
2016,09,30,06,11,2.80
2016,09,30,06,12,2.80
2016,09,30,06,13,2.80
2016,09,30,06,14,2.80
2016,09,30,06,15,2.80
2016,09,30,06,16,2.80
2016,09,30,06,17,2.80
2016,09,30,06,18,2.80
2016,09,30,06,19,2.90
2016,09,30,06,20,2.90
2016,09,30,06,21,2.90
2016,09,30,06,22,2.90
2016,09,30,06,23,2.90
2016,09,30,06,24,2.90
2016,09,30,06,25,2.90
2016,09,30,06,26,2.80
2016,09,30,06,27,2.80
2016,09,30,06,28,2.80
2016,09,30,06,29,2.80
2016,09,30,06,30,2.80
2016,09,30,06,31,2.80
2016,09,30,06,32,2.80
2016,09,30,06,33,2.80
2016,09,30,06,34,2.80
2016,09,30,06,35,2.80
2016,09,30,06,36,2.80
2016,09,30,06,37,2.80
2016,09,30,06,38,2.80
2016,09,30,06,39,2.80
2016,09,30,06,40,2.80
2016,09,30,06,41,2.80
2016,09,30,06,42,2.80
2016,09,30,06,43,2.80
2016,09,30,06,44,2.80
2016,09,30,06,45,2.80
2016,09,30,06,46,2.80
2016,09,30,06,47,2.80
2016,09,30,06,48,2.80
2016,09,30,06,49,2.80
2016,09,30,06,50,2.80
2016,09,30,06,51,2.80
2016,09,30,06,52,2.80
2016,09,30,06,53,2.80
2016,09,30,06,54,2.80
2016,09,30,06,55,2.80
2016,09,30,06,56,2.80
2016,09,30,06,57,2.80
2016,09,30,06,58,2.80
2016,09,30,06,59,2.80
2016,09,30,07,00,2.80
2016,09,30,07,01,2.80
2016,09,30,07,02,2.80
2016,09,30,07,03,2.80
2016,09,30,07,04,2.80
2016,09,30,07,05,2.80
2016,09,30,07,06,2.80
2016,09,30,07,07,2.70
2016,09,30,07,08,2.70
2016,09,30,07,09,2.70
2016,09,30,07,10,2.70
2016,09,30,07,11,2.70
2016,09,30,07,12,2.70
2016,09,30,07,13,2.70
2016,09,30,07,14,2.70
2016,09,30,07,15,2.70
2016,09,30,07,16,2.70
2016,09,30,07,17,2.70
2016,09,30,07,18,2.70
2016,09,30,07,19,2.70
2016,09,30,07,20,2.70
2016,09,30,07,21,2.70
2016,09,30,07,22,2.70
2016,09,30,07,23,2.70
2016,09,30,07,24,2.70
2016,09,30,07,25,2.70
2016,09,30,07,26,2.70
2016,09,30,07,27,2.70
2016,09,30,07,28,2.70
2016,09,30,07,29,2.70
2016,09,30,07,30,2.70
2016,09,30,07,31,2.70
2016,09,30,07,32,2.70
2016,09,30,07,33,2.70
2016,09,30,07,34,2.70
2016,09,30,07,35,2.70
2016,09,30,07,36,2.70
2016,09,30,07,37,2.70
2016,09,30,07,38,2.70
2016,09,30,07,39,2.70
2016,09,30,07,40,2.80
2016,09,30,07,41,2.80
2016,09,30,07,42,2.80
2016,09,30,07,43,2.80
2016,09,30,07,44,2.80
2016,09,30,07,45,2.80
2016,09,30,07,46,2.80
2016,09,30,07,47,2.80
2016,09,30,07,48,2.80
2016,09,30,07,49,2.80
2016,09,30,07,50,2.80
2016,09,30,07,51,2.80
2016,09,30,07,52,2.80
2016,09,30,07,53,2.80
2016,09,30,07,54,2.90
2016,09,30,07,55,2.90
2016,09,30,07,56,2.90
2016,09,30,07,57,2.90
2016,09,30,07,58,2.90
2016,09,30,07,59,2.90
2016,09,30,08,00,2.90
2016,09,30,08,01,2.90
2016,09,30,08,02,2.90
2016,09,30,08,03,2.90
2016,09,30,08,04,3.00
2016,09,30,08,05,3.00
2016,09,30,08,06,3.00
2016,09,30,08,07,3.00
2016,09,30,08,08,3.00
2016,09,30,08,09,3.00
2016,09,30,08,10,3.00
2016,09,30,08,11,3.10
2016,09,30,08,12,3.10
2016,09,30,08,13,3.00
2016,09,30,08,14,3.10
2016,09,30,08,15,3.10
2016,09,30,08,16,3.10
2016,09,30,08,17,3.10
2016,09,30,08,18,3.10
2016,09,30,08,19,3.10
2016,09,30,08,20,3.10
2016,09,30,08,21,3.10
2016,09,30,08,22,3.10
2016,09,30,08,23,3.10
2016,09,30,08,24,3.20
2016,09,30,08,25,3.20
2016,09,30,08,26,3.20
2016,09,30,08,27,3.20
2016,09,30,08,28,3.30
2016,09,30,08,29,3.30
2016,09,30,08,30,3.30
2016,09,30,08,31,3.30
2016,09,30,08,32,3.30
2016,09,30,08,33,3.40
2016,09,30,08,34,3.40
2016,09,30,08,35,3.40
2016,09,30,08,36,3.40
2016,09,30,08,37,3.50
2016,09,30,08,38,3.50
2016,09,30,08,39,3.60
2016,09,30,08,40,3.60
2016,09,30,08,41,3.70
2016,09,30,08,42,3.80
2016,09,30,08,43,3.80
2016,09,30,08,44,3.90
2016,09,30,08,45,4.00
2016,09,30,08,46,4.10
2016,09,30,08,47,4.20
2016,09,30,08,48,4.30
2016,09,30,08,49,4.40
2016,09,30,08,50,4.50
2016,09,30,08,51,4.60
2016,09,30,08,52,4.70
2016,09,30,08,53,4.70
2016,09,30,08,54,4.80
2016,09,30,08,55,4.90
2016,09,30,08,56,5.10
2016,09,30,08,57,5.10
2016,09,30,08,58,5.30
2016,09,30,08,59,5.40
2016,09,30,09,00,5.50
2016,09,30,09,01,5.60
2016,09,30,09,02,5.70
2016,09,30,09,03,5.80
2016,09,30,09,04,5.90
2016,09,30,09,05,6.00
2016,09,30,09,06,6.00
2016,09,30,09,07,6.10
2016,09,30,09,08,6.20
2016,09,30,09,09,6.20
2016,09,30,09,10,6.30
2016,09,30,09,11,6.30
2016,09,30,09,12,6.30
2016,09,30,09,13,6.40
2016,09,30,09,14,6.50
2016,09,30,09,15,6.50
2016,09,30,09,16,6.60
2016,09,30,09,17,6.70
2016,09,30,09,18,6.70
2016,09,30,09,19,6.80
2016,09,30,09,20,6.80
2016,09,30,09,21,6.90
2016,09,30,09,22,7.00
2016,09,30,09,23,7.00
2016,09,30,09,24,7.10
2016,09,30,09,25,7.20
2016,09,30,09,26,7.20
2016,09,30,09,27,7.30
2016,09,30,09,28,7.40
2016,09,30,09,29,7.40
2016,09,30,09,30,7.50
2016,09,30,09,31,7.50
2016,09,30,09,32,7.60
2016,09,30,09,33,7.60
2016,09,30,09,34,7.70
2016,09,30,09,35,7.80
2016,09,30,09,36,7.80
2016,09,30,09,37,7.90
2016,09,30,09,38,8.00
2016,09,30,09,39,8.00
2016,09,30,09,40,8.10
2016,09,30,09,41,8.20
2016,09,30,09,42,8.20
2016,09,30,09,43,8.30
2016,09,30,09,44,8.40
2016,09,30,09,45,8.50
2016,09,30,09,46,8.60
2016,09,30,09,47,8.70
2016,09,30,09,48,8.70
2016,09,30,09,49,8.80
2016,09,30,09,50,8.90
2016,09,30,09,51,9.00
2016,09,30,09,52,9.10
2016,09,30,09,53,9.20
2016,09,30,09,54,9.30
2016,09,30,09,55,9.40
2016,09,30,09,56,9.50
2016,09,30,09,57,9.60
2016,09,30,09,58,9.70
2016,09,30,09,59,9.80
2016,09,30,10,00,9.90
2016,09,30,10,01,9.90
2016,09,30,10,02,10.00
2016,09,30,10,03,10.10
2016,09,30,10,04,10.10
2016,09,30,10,05,10.20
2016,09,30,10,06,10.20
2016,09,30,10,07,10.20
2016,09,30,10,08,10.30
2016,09,30,10,09,10.30
2016,09,30,10,10,10.30
2016,09,30,10,11,10.40
2016,09,30,10,12,10.40
2016,09,30,10,13,10.40
2016,09,30,10,14,10.50
2016,09,30,10,15,10.50
2016,09,30,10,16,10.60
2016,09,30,10,17,10.50
2016,09,30,10,18,10.60
2016,09,30,10,19,10.60
2016,09,30,10,20,10.60
2016,09,30,10,21,10.70
2016,09,30,10,22,10.70
2016,09,30,10,23,10.80
2016,09,30,10,24,10.80
2016,09,30,10,25,10.90
2016,09,30,10,26,10.90
2016,09,30,10,27,11.00
2016,09,30,10,28,11.10
2016,09,30,10,29,11.10
2016,09,30,10,30,11.20
2016,09,30,10,31,11.30
2016,09,30,10,32,11.30
2016,09,30,10,33,11.40
2016,09,30,10,34,11.40
2016,09,30,10,35,11.50
2016,09,30,10,36,11.50
2016,09,30,10,37,11.60
2016,09,30,10,38,11.60
2016,09,30,10,39,11.70
2016,09,30,10,40,11.70
2016,09,30,10,41,11.70
2016,09,30,10,42,11.70
2016,09,30,10,43,11.70
2016,09,30,10,44,11.70
2016,09,30,10,45,11.80
2016,09,30,10,46,11.80
2016,09,30,10,47,11.80
2016,09,30,10,48,11.80
2016,09,30,10,49,11.80
2016,09,30,10,50,11.80
2016,09,30,10,51,11.80
2016,09,30,10,52,11.80
2016,09,30,10,53,11.80
2016,09,30,10,54,11.70
2016,09,30,10,55,11.70
2016,09,30,10,56,11.70
2016,09,30,10,57,11.70
2016,09,30,10,58,11.70
2016,09,30,10,59,11.70
2016,09,30,11,00,11.70
2016,09,30,11,01,11.70
2016,09,30,11,02,11.70
2016,09,30,11,03,11.70
2016,09,30,11,04,11.70
2016,09,30,11,05,11.70
2016,09,30,11,06,11.70
2016,09,30,11,07,11.60
2016,09,30,11,08,11.60
2016,09,30,11,09,11.60
2016,09,30,11,10,11.60
2016,09,30,11,11,11.60
2016,09,30,11,12,11.70
2016,09,30,11,13,11.70
2016,09,30,11,14,11.70
2016,09,30,11,15,11.70
2016,09,30,11,16,11.80
2016,09,30,11,17,11.80
2016,09,30,11,18,11.80
2016,09,30,11,19,11.80
2016,09,30,11,20,11.90
2016,09,30,11,21,11.90
2016,09,30,11,22,11.90
2016,09,30,11,23,11.90
2016,09,30,11,24,12.00
2016,09,30,11,25,12.00
2016,09,30,11,26,12.10
2016,09,30,11,27,12.10
2016,09,30,11,28,12.10
2016,09,30,11,29,12.10
2016,09,30,11,30,12.20
2016,09,30,11,31,12.20
2016,09,30,11,32,12.10
2016,09,30,11,33,12.10
2016,09,30,11,34,12.10
2016,09,30,11,35,12.20
2016,09,30,11,36,12.20
2016,09,30,11,37,12.20
2016,09,30,11,38,12.20
2016,09,30,11,39,12.20
2016,09,30,11,40,12.30
2016,09,30,11,41,12.30
2016,09,30,11,42,12.30
2016,09,30,11,43,12.30
2016,09,30,11,44,12.30
2016,09,30,11,45,12.30
2016,09,30,11,46,12.40
2016,09,30,11,47,12.40
2016,09,30,11,48,12.50
2016,09,30,11,49,12.50
2016,09,30,11,50,12.60
2016,09,30,11,51,12.60
2016,09,30,11,52,12.60
2016,09,30,11,53,12.60
2016,09,30,11,54,12.60
2016,09,30,11,55,12.60
2016,09,30,11,56,12.60
2016,09,30,11,57,12.60
2016,09,30,11,58,12.70
2016,09,30,11,59,12.80
2016,09,30,12,00,12.80
2016,09,30,12,01,12.90
2016,09,30,12,02,12.90
2016,09,30,12,03,12.90
2016,09,30,12,04,12.90
2016,09,30,12,05,13.00
2016,09,30,12,06,13.00
2016,09,30,12,07,13.00
2016,09,30,12,08,13.10
2016,09,30,12,09,13.10
2016,09,30,12,10,13.10
2016,09,30,12,11,13.20
2016,09,30,12,12,13.20
2016,09,30,12,13,13.20
2016,09,30,12,14,13.30
2016,09,30,12,15,13.30
2016,09,30,12,16,13.40
2016,09,30,12,17,13.40
2016,09,30,12,18,13.50
2016,09,30,12,19,13.50
2016,09,30,12,20,13.60
2016,09,30,12,21,13.60
2016,09,30,12,22,13.60
2016,09,30,12,23,13.60
2016,09,30,12,24,13.60
2016,09,30,12,25,13.60
2016,09,30,12,26,13.60
2016,09,30,12,27,13.60
2016,09,30,12,28,13.60
2016,09,30,12,29,13.60
2016,09,30,12,30,13.50
2016,09,30,12,31,13.50
2016,09,30,12,32,13.50
2016,09,30,12,33,13.60
2016,09,30,12,34,13.70
2016,09,30,12,35,13.70
2016,09,30,12,36,13.80
2016,09,30,12,37,13.80
2016,09,30,12,38,13.80
2016,09,30,12,39,13.80
2016,09,30,12,40,13.80
2016,09,30,12,41,13.80
2016,09,30,12,42,13.90
2016,09,30,12,43,13.90
2016,09,30,12,44,14.00
2016,09,30,12,45,14.10
2016,09,30,12,46,14.10
2016,09,30,12,47,14.20
2016,09,30,12,48,14.20
2016,09,30,12,49,14.30
2016,09,30,12,50,14.40
2016,09,30,12,51,14.50
2016,09,30,12,52,14.50
2016,09,30,12,53,14.60
2016,09,30,12,54,14.60
2016,09,30,12,55,14.60
2016,09,30,12,56,14.60
2016,09,30,12,57,14.60
2016,09,30,12,58,14.60
2016,09,30,12,59,14.60
2016,09,30,13,00,14.60
2016,09,30,13,01,14.60
2016,09,30,13,02,14.60
2016,09,30,13,03,14.50
2016,09,30,13,04,14.40
2016,09,30,13,05,14.40
2016,09,30,13,06,14.50
2016,09,30,13,07,14.60
2016,09,30,13,08,14.60
2016,09,30,13,09,14.60
2016,09,30,13,10,14.60
2016,09,30,13,11,14.70
2016,09,30,13,12,14.70
2016,09,30,13,13,14.70
2016,09,30,13,14,14.70
2016,09,30,13,15,14.70
2016,09,30,13,16,14.60
2016,09,30,13,17,14.60
2016,09,30,13,18,14.60
2016,09,30,13,19,14.70
2016,09,30,13,20,14.70
2016,09,30,13,21,14.70
2016,09,30,13,22,14.70
2016,09,30,13,23,14.70
2016,09,30,13,24,14.70
2016,09,30,13,25,14.70
2016,09,30,13,26,14.80
2016,09,30,13,27,14.80
2016,09,30,13,28,14.80
2016,09,30,13,29,14.90
2016,09,30,13,30,15.00
2016,09,30,13,31,15.00
2016,09,30,13,32,15.00
2016,09,30,13,33,15.00
2016,09,30,13,34,15.00
2016,09,30,13,35,15.10
2016,09,30,13,36,15.20
2016,09,30,13,37,15.20
2016,09,30,13,38,15.30
2016,09,30,13,39,15.40
2016,09,30,13,40,15.40
2016,09,30,13,41,15.50
2016,09,30,13,42,15.50
2016,09,30,13,43,15.60
2016,09,30,13,44,15.70
2016,09,30,13,45,15.80
2016,09,30,13,46,15.80
2016,09,30,13,47,15.80
2016,09,30,13,48,15.80
2016,09,30,13,49,15.80
2016,09,30,13,50,15.80
2016,09,30,13,51,15.70
2016,09,30,13,52,15.60
2016,09,30,13,53,15.60
2016,09,30,13,54,15.70
2016,09,30,13,55,15.70
2016,09,30,13,56,15.70
2016,09,30,13,57,15.70
2016,09,30,13,58,15.70
2016,09,30,13,59,15.60
2016,09,30,14,00,15.60
2016,09,30,14,01,15.60
2016,09,30,14,02,15.60
2016,09,30,14,03,15.60
2016,09,30,14,04,15.60
2016,09,30,14,05,15.70
2016,09,30,14,06,15.70
2016,09,30,14,07,15.80
2016,09,30,14,08,15.90
2016,09,30,14,09,16.00
2016,09,30,14,10,16.10
2016,09,30,14,11,16.10
2016,09,30,14,12,16.10
2016,09,30,14,13,16.10
2016,09,30,14,14,16.00
2016,09,30,14,15,16.10
2016,09,30,14,16,16.10
2016,09,30,14,17,16.10
2016,09,30,14,18,16.10
2016,09,30,14,19,16.10
2016,09,30,14,20,16.20
2016,09,30,14,21,16.20
2016,09,30,14,22,16.20
2016,09,30,14,23,16.30
2016,09,30,14,24,16.30
2016,09,30,14,25,16.30
2016,09,30,14,26,16.30
2016,09,30,14,27,16.20
2016,09,30,14,28,16.20
2016,09,30,14,29,16.20
2016,09,30,14,30,16.20
2016,09,30,14,31,16.20
2016,09,30,14,32,16.30
2016,09,30,14,33,16.30
2016,09,30,14,34,16.20
2016,09,30,14,35,16.10
2016,09,30,14,36,16.00
2016,09,30,14,37,16.00
2016,09,30,14,38,15.90
2016,09,30,14,39,15.80
2016,09,30,14,40,15.80
2016,09,30,14,41,15.70
2016,09,30,14,42,15.70
2016,09,30,14,43,15.60
2016,09,30,14,44,15.50
2016,09,30,14,45,15.50
2016,09,30,14,46,15.50
2016,09,30,14,47,15.40
2016,09,30,14,48,15.40
2016,09,30,14,49,15.30
2016,09,30,14,50,15.20
2016,09,30,14,51,15.10
2016,09,30,14,52,15.00
2016,09,30,14,53,15.00
2016,09,30,14,54,15.00
2016,09,30,14,55,15.00
2016,09,30,14,56,15.00
2016,09,30,14,57,15.00
2016,09,30,14,58,15.00
2016,09,30,14,59,15.00
2016,09,30,15,00,15.00
2016,09,30,15,01,14.90
2016,09,30,15,02,14.80
2016,09,30,15,03,14.80
2016,09,30,15,04,14.70
2016,09,30,15,05,14.80
2016,09,30,15,06,14.80
2016,09,30,15,07,14.80
2016,09,30,15,08,14.70
2016,09,30,15,09,14.70
2016,09,30,15,10,14.70
2016,09,30,15,11,14.70
2016,09,30,15,12,14.70
2016,09,30,15,13,14.70
2016,09,30,15,14,14.70
2016,09,30,15,15,14.70
2016,09,30,15,16,14.80
2016,09,30,15,17,14.80
2016,09,30,15,18,14.80
2016,09,30,15,19,14.80
2016,09,30,15,20,14.80
2016,09,30,15,21,14.90
2016,09,30,15,22,14.90
2016,09,30,15,23,14.90
2016,09,30,15,24,14.90
2016,09,30,15,25,14.90
2016,09,30,15,26,14.80
2016,09,30,15,27,14.80
2016,09,30,15,28,14.80
2016,09,30,15,29,14.80
2016,09,30,15,30,14.70
2016,09,30,15,31,14.70
2016,09,30,15,32,14.70
2016,09,30,15,33,14.70
2016,09,30,15,34,14.70
2016,09,30,15,35,14.70
2016,09,30,15,36,14.70
2016,09,30,15,37,14.60
2016,09,30,15,38,14.60
2016,09,30,15,39,14.60
2016,09,30,15,40,14.70
2016,09,30,15,41,14.70
2016,09,30,15,42,14.70
2016,09,30,15,43,14.70
2016,09,30,15,44,14.80
2016,09,30,15,45,14.80
2016,09,30,15,46,14.80
2016,09,30,15,47,14.80
2016,09,30,15,48,14.90
2016,09,30,15,49,14.90
2016,09,30,15,50,14.90
2016,09,30,15,51,15.00
2016,09,30,15,52,15.00
2016,09,30,15,53,15.00
2016,09,30,15,54,15.00
2016,09,30,15,55,15.00
2016,09,30,15,56,15.00
2016,09,30,15,57,15.00
2016,09,30,15,58,15.00
2016,09,30,15,59,15.00
2016,09,30,16,00,15.00
2016,09,30,16,01,15.00
2016,09,30,16,02,15.00
2016,09,30,16,03,15.00
2016,09,30,16,04,15.00
2016,09,30,16,05,15.00
2016,09,30,16,06,15.00
2016,09,30,16,07,15.00
2016,09,30,16,08,15.00
2016,09,30,16,09,15.00
2016,09,30,16,10,15.00
2016,09,30,16,11,15.00
2016,09,30,16,12,15.00
2016,09,30,16,13,15.00
2016,09,30,16,14,15.00
2016,09,30,16,15,15.00
2016,09,30,16,16,15.00
2016,09,30,16,17,15.00
2016,09,30,16,18,15.00
2016,09,30,16,19,15.00
2016,09,30,16,20,15.00
2016,09,30,16,21,15.00
2016,09,30,16,22,15.00
2016,09,30,16,23,15.00
2016,09,30,16,24,15.00
2016,09,30,16,25,15.00
2016,09,30,16,26,15.00
2016,09,30,16,27,15.00
2016,09,30,16,28,15.00
2016,09,30,16,29,15.00
2016,09,30,16,30,15.00
2016,09,30,16,31,15.00
2016,09,30,16,32,14.90
2016,09,30,16,33,14.90
2016,09,30,16,34,14.90
2016,09,30,16,35,14.90
2016,09,30,16,36,14.80
2016,09,30,16,37,14.80
2016,09,30,16,38,14.80
2016,09,30,16,39,14.80
2016,09,30,16,40,14.80
2016,09,30,16,41,14.70
2016,09,30,16,42,14.70
2016,09,30,16,43,14.80
2016,09,30,16,44,14.80
2016,09,30,16,45,14.80
2016,09,30,16,46,14.80
2016,09,30,16,47,14.70
2016,09,30,16,48,14.70
2016,09,30,16,49,14.70
2016,09,30,16,50,14.70
2016,09,30,16,51,14.70
2016,09,30,16,52,14.70
2016,09,30,16,53,14.70
2016,09,30,16,54,14.70
2016,09,30,16,55,14.70
2016,09,30,16,56,14.70
2016,09,30,16,57,14.70
2016,09,30,16,58,14.70
2016,09,30,16,59,14.70
2016,09,30,17,00,14.70
2016,09,30,17,01,14.70
2016,09,30,17,02,14.70
2016,09,30,17,03,14.60
2016,09,30,17,04,14.60
2016,09,30,17,05,14.60
2016,09,30,17,06,14.60
2016,09,30,17,07,14.60
2016,09,30,17,08,14.60
2016,09,30,17,09,14.60
2016,09,30,17,10,14.50
2016,09,30,17,11,14.50
2016,09,30,17,12,14.40
2016,09,30,17,13,14.40
2016,09,30,17,14,14.40
2016,09,30,17,15,14.40
2016,09,30,17,16,14.40
2016,09,30,17,17,14.40
2016,09,30,17,18,14.40
2016,09,30,17,19,14.30
2016,09,30,17,20,14.30
2016,09,30,17,21,14.30
2016,09,30,17,22,14.30
2016,09,30,17,23,14.30
2016,09,30,17,24,14.30
2016,09,30,17,25,14.30
2016,09,30,17,26,14.30
2016,09,30,17,27,14.30
2016,09,30,17,28,14.30
2016,09,30,17,29,14.20
2016,09,30,17,30,14.20
2016,09,30,17,31,14.20
2016,09,30,17,32,14.20
2016,09,30,17,33,14.20
2016,09,30,17,34,14.10
2016,09,30,17,35,14.10
2016,09,30,17,36,14.10
2016,09,30,17,37,14.10
2016,09,30,17,38,14.10
2016,09,30,17,39,14.00
2016,09,30,17,40,14.00
2016,09,30,17,41,14.00
2016,09,30,17,42,14.00
2016,09,30,17,43,14.00
2016,09,30,17,44,13.90
2016,09,30,17,45,13.90